Home   Weather   Acworth   Past weeks
Flag for USA

Past Weather in Acworth, Georgia, USA — Yesterday and Last 2 Weeks

Now
46 °F

More clouds than sun.


Feels Like: 39 °F
Forecast: 52 / 37 °F
Wind: 17 mph from West

Location: Cobb County-McCollum Field Airport

Current Time: Feb 26, 2020 at 6:17:56 pm

Latest Report: Feb 26, 2020 at 5:28 pm


Visibility: 10 mi

Pressure: 29.93 "Hg

Humidity: 66%

Dew Point: 36 °F

Location of AcworthLocation

Past Weather in Acworth — Graph

°F

Acworth Temperature Yesterday

Maximum temperature yesterday: 64 °F (at 2:50 pm)
Minimum temperature yesterday: 46 °F (at 6:38 am)
Average temperature yesterday: 53 °F

High & Low Weather Summary for the Past Weeks

 TemperatureHumidityPressure
High72 °F (Feb 12, 3:50 pm)100% (Feb 11, 11:31 pm)30.36 "Hg (Feb 11, 11:31 pm)
Low25 °F (Feb 22, 5:50 am)28% (Feb 14, 3:50 pm)28.95 "Hg (Feb 13, 4:50 am)
Average48 °F82%29.52 "Hg
* Reported Feb 11 4:31 pm — Feb 26 4:50 pm, Acworth. Weather by CustomWeather, © 2020

Note: Actual official high and low records may vary slightly from our data, if they occured in-between our weather recording intervals... More about our weather records

Acworth Weather History for the Previous 24 Hours

Scroll right to see more
 ConditionsComfort  
Time TempWeatherWind HumidityBarometerVisibility
4:50 pm
Wed, Feb 26
48 °FCloudy.15 mph71%29.10 "Hg10 mi
4:23 pm48 °FMostly cloudy.13 mph82%29.91 "Hg10 mi
3:57 pm46 °FMostly cloudy.9 mph82%29.92 "Hg10 mi
2:50 pm48 °FLight rain. Overcast.9 mph77%29.07 "Hg10 mi
1:50 pm51 °FMore clouds than sun.16 mph63%29.08 "Hg10 mi
12:50 pm54 °FCloudy.12 mph62%29.11 "Hg10 mi
11:50 am55 °FScattered clouds.9 mph64%29.11 "Hg10 mi
10:50 am52 °FPartly sunny.14 mph77%29.13 "Hg10 mi
9:50 am53 °FScattered clouds.9 mph74%29.09 "Hg10 mi
8:50 am48 °FScattered clouds.9 mph89%29.09 "Hg10 mi
7:50 am44 °FFog.6 mph100%29.07 "Hg3 mi
6:50 am45 °FFog.6 mph97%29.08 "Hg1 mi
6:35 am45 °FFog.5 mph100%29.89 "Hg1 mi
5:50 am46 °FPassing clouds.3 mph96%29.06 "Hg10 mi
4:50 am45 °FClear.6 mph97%29.08 "Hg10 mi
3:50 am48 °FClear.5 mph93%29.05 "Hg10 mi
2:50 am46 °FClear.No wind96%29.07 "Hg10 mi
1:50 am49 °FClear.5 mph90%29.07 "Hg10 mi
12:50 am50 °FClear.3 mph89%29.09 "Hg10 mi
11:50 pm
Tue, Feb 25
48 °FClear.No wind93%29.09 "Hg10 mi
10:50 pm52 °FClear.No wind83%29.09 "Hg10 mi
9:50 pm52 °FClear.3 mph83%29.09 "Hg10 mi
8:50 pm53 °FClear.No wind83%29.07 "Hg10 mi
7:50 pm55 °FClear.No wind80%29.06 "Hg10 mi
6:50 pm58 °FClear.3 mph75%29.04 "Hg10 mi
Weather by CustomWeather, © 2020

See weather overview

Advertising